Flag for U.S.A. Weather past 2 weeks in Anaheim, California, U.S.A.

Now
93 °F

Sunny.


Feels Like: 91 °F
Forecast: 69 / 96 °F
Wind: 6 mph from North

Location: Fullerton Municipal Airport

Current Time: Aug 27, 2015 at 6:34:43 PM

Latest Report: Aug 27, 2015 at 5:53 PM


Visibility: 10 mi

Pressure: 29.84 "Hg

Humidity: 29%

Dew point: 56 °F

Location of AnaheimLocation

Historic Weather in Anaheim — Graph

°F

Anaheim temperature yesterday

Maximum temperature yesterday: 93 °F (at 4:53 PM)
Minimum temperature yesterday: 73 °F (at 5:53 AM)
Average temperature yesterday: 82 °F

Past Weeks' High & Low Weather Summary

 TemperatureHumidityPressure
High101 °F (Aug 15, 3:53 PM)87% (Aug 23, 6:53 AM)29.97 "Hg (Aug 23, 6:53 AM)
Low67 °F (Aug 23, 4:53 AM)16% (Aug 15, 3:53 PM)29.77 "Hg (Aug 16, 5:53 PM)
Average78 °F62%29.89 "Hg
* Reported Aug 12 4:53 PM — Aug 27 4:53 PM, Anaheim, Weather by CustomWeather, © 2015

Note: Actual official high and low records may vary slightly from our data, if they occured in-between our weather recording intervals... More about our weather records

Advertising

Anaheim weather history for previous 24 hours

 ConditionsComfort  
Time TempWeatherWind HumidityBarometerVisibility
4:53 PM
Thu, Aug 27
93 °FSunny.8 mph34%29.85 "Hg10 mi
3:53 PM94 °FSunny.8 mph35%29.86 "Hg10 mi
2:53 PM95 °FSunny.8 mph35%29.89 "Hg10 mi
1:53 PM94 °FSunny.6 mph31%29.91 "Hg10 mi
12:53 PM93 °FSunny.8 mph36%29.94 "Hg10 mi
11:53 AM91 °FSunny.7 mph42%29.96 "Hg10 mi
10:53 AM87 °FSunny.3 mph46%29.97 "Hg10 mi
9:53 AM83 °FSunny.5 mph57%29.97 "Hg8 mi
8:53 AM79 °FSunny.3 mph69%29.96 "Hg7 mi
7:53 AM75 °FSunny.No wind79%29.96 "Hg7 mi
6:53 AM72 °FClear.No wind84%29.94 "Hg7 mi
5:53 AM72 °FPassing clouds.No wind84%29.94 "Hg9 mi
4:53 AM72 °FClear.No wind84%29.94 "Hg9 mi
3:53 AM72 °FClear.No wind84%29.93 "Hg9 mi
2:53 AM73 °FClear.No wind81%29.94 "Hg10 mi
1:53 AM73 °FClear.No wind84%29.95 "Hg9 mi
10:53 PM
Wed, Aug 26
78 °FClear.3 mph66%29.94 "Hg10 mi
9:53 PM80 °FClear.3 mph56%29.94 "Hg10 mi
6:53 PM88 °FSunny.6 mph39%29.88 "Hg10 mi
Weather by CustomWeather, © 2015

See weather overviewHow to use our weather pages